Regional Weather Roundup
Issued by NWS

Home | Current Version | Previous Version | Text Only | Print | Product List | Glossary On
Versions: 1 2 3 4 5 6 7 8 9 10 11 12 13 14 15 16 17 18 19 20 21 22 23 24 25 26 27 28 29 30 31 32 33 34 35 36 37 38 39 40 41 42 43 44 45 46 47 48 49 50
691
ASCA44 KEWX 112320
RWRMX

LATIN AMERICA AND CARIBBEAN REGIONAL WEATHER ROUNDUP
NATIONAL WEATHER SERVICE AUSTIN/SAN ANTONIO TX
500 PM CST THU FEB 11 2016

NOTE: "FAIR" INDICATED FEW OR NO CLOUDS BELOW 12,000 FEET WITH NO
SIGNIFICANT WEATHER AND/OR OBSTRUCTIONS TO VISIBILITY.

BAJA CALIFORNIA

CITY           SKY/WX    TMP DP  RH WIND       PRES   REMARKS
LORETO         MOSUNNY   81  61  50 NE6       29.96F
LA PAZ         PTSUNNY   79  45  29 N12       29.99F
MEXICALI       SUNNY     84  21  10 NW8       30.07F
S.J. DEL CABO  PTSUNNY   84  48  28 SE13      29.97S
TIJUANA        SUNNY     81  23  12 W9        30.08S

NORTHWESTERN MEXICO

CITY           SKY/WX    TMP DP  RH WIND       PRES   REMARKS
CULIACAN       MOSUNNY   90  70  51 SW10      29.94S HX  95
DURANGO        SUNNY     72  14  11 NE8       30.25F
GUAYMAS        MOSUNNY   77  57  50 S14       29.91S
HERMOSILLO     MOSUNNY   97  27   8 SW7       30.00F HX  90
CD. JUAREZ     SUNNY     72  36  26 CALM      30.22S
LOS MOCHIS     MOSUNNY   81  54  39 NW15      29.95S
OBREGON        MOSUNNY   86  48  26 W10       29.91F

NORTHEASTERN MEXICO

CITY           SKY/WX    TMP DP  RH WIND       PRES   REMARKS
CHIHUAHUA      PTSUNNY   73  19  13 NE10      30.22R
MATAMOROS      MOSUNNY   73  54  49 SE21      30.17S
MONCLOVA         N/A    N/A N/A N/A MISG        N/A
MONTERREY      PTSUNNY   84  23  10 SE16      30.06R
NUEVO LAREDO   MOSUNNY   88  34  14 CALM      30.07S
PIEDRAS NEGRAS   N/A    N/A N/A N/A MISG        N/A
REYNOSA        SUNNY     77  45  31 SE18      30.09R
SALTILLO       SUNNY     72  41  33 W7        30.27S
TORREON        MOSUNNY   77  27  15 CALM      30.18S
CD. VICTORIA   SUNNY     81  30  16 S9G22     30.09R

WESTERN MEXICO

CITY           SKY/WX    TMP DP  RH WIND       PRES   REMARKS
AGUASCALIENTES SUNNY     72  12  10 N12       30.26F
COLIMA         PTSUNNY   82  61  47 SW14      29.98S
DEL BAJIO      SUNNY     75  27  16 S7        30.27S
GUADALAJARA    PTSUNNY   77  25  14 N6        30.18S
MANZANILLO     MOSUNNY   82  75  78 CALM      29.86R
MAZATLAN       PTSUNNY   82  66  57 SW6       29.91F
P. VALLARTA    MOSUNNY   81  70  69 SW9       29.91S
URUAPAN        PTSUNNY   75  46  35 S9        30.15S
ZACATECAS      SUNNY     66  18  15 CALM      30.31S

CENTRAL MEXICO

CITY           SKY/WX    TMP DP  RH WIND       PRES   REMARKS
CUERNAVACA     MOSUNNY   77  32  19 CALM      30.10S
MEXICO CITY    SUNNY     70  23  17 NE9       30.26S
MORELIA        SUNNY     72  28  20 N7        30.22R
POZA RICA      SUNNY     77  75  94 E12       30.19R
PUEBLA         SUNNY     68  27  21 S12       30.26R
QUERETARO      MOSUNNY   72  27  18 SE6       30.27S
S. LUIS POTOSI SUNNY     68  12  11 NE8       30.27S
TAMPICO        SUNNY     73  55  53 SE17      30.15R
TOLUCA         MOSUNNY   70  30  23 W6        30.31F

SOUTHERN MEXICO

CITY           SKY/WX    TMP DP  RH WIND       PRES   REMARKS
ACAPULCO       SUNNY     84  70  61 SW7       29.88R
B. DE HUATULCO MOSUNNY   84  66  54 CALM      29.95
OAXACA         SUNNY     75  23  14 S67       30.17S
P. ESCONDIDO   SUNNY    N/A N/A N/A S9        30.00F
VERACRUZ       SUNNY     73  59  60 E10       30.16R
ZIHUATANEJO    MOSUNNY   86  73  66 SW6       29.89S HX  93

YUCATAN PENINSULA

CITY           SKY/WX    TMP DP  RH WIND       PRES   REMARKS
CAMPECHE       SUNNY     70  61  73 N16       30.14S
CANCUN         MOCLDY    72  61  68 N5        30.19R
CHETUMAL       PTSUNNY   77  55  47 N7        30.15R
CD. DEL CARMEN SUNNY     72  55  56 N9        30.17R
COZUMEL        PTCLDY    70  63  78 E9        30.18R
MERIDA         MOSUNNY   73  55  53 N14       30.17R
MINATITLAN     SUNNY     72  61  68 N14       30.14R
TAPACHULA      SUNNY     84  72  65 W14       29.90R
TUX. GUTIERREZ SUNNY     72  50  46 W23       30.07R
VILLAHERMOSA   MOSUNNY   75  54  46 NE7       30.16S

CENTRAL AMERICA

CITY           SKY/WX    TMP DP  RH WIND       PRES   REMARKS
BELIZE CITY    MOSUNNY   77  59  53 NE7       30.14R
MANAGUA        PTCLDY    84  68  58 NE16      29.89R

CARIBBEAN

CITY           SKY/WX    TMP DP  RH WIND       PRES   REMARKS
ARUBA          PTCLDY    81  73  78 NE17      29.92S
KINGSTON       MOCLDY    79  72  78 N10       30.03R
NASSAU         MOCLDY    70  43  37 N5        30.26R
SAN JUAN       PTCLDY    79  70  73 E12       30.07R
SANTO DOMINGO  LGT RAIN  79  72  78 N7        30.03R
ST. CROIX      PTCLDY    79  68  69 E9        30.07R
ST. KITTS      MOCLDY    73  72  94 N6        30.06S
ST. MAARTEN    PTCLDY    79  68  69 E6        30.06S
ST. THOMAS     CLEAR     79  68  69 E8        30.07

$$





USA.gov is the U.S. government's official web portal to all federal, state and local government web resources and services.